Location: Proctor
(47.8934°N, 114.3048°W)
Time: 16:49:21
(UTC+00:00)

Courier 1B Rocket - Pass Details

Date: 18 June 2024
Orbit: 920 x 1201 km, 28.2° (Epoch: 16 July)

Event Time Altitude Azimuth Distance (km) Brightness Sun altitude
Rises 11:18:45 0° 207° (SSW) 3,798 - -3.3°
Exits shadow 11:19:04 - 206° (SSW) 3,729 7.5 -3.3°
Reaches altitude 10° 11:24:50 10° 167° (SSE) 2,940 7.3 -2.5°
Maximum altitude 11:25:40 10° 161° (SSE) 2,936 7.3 -2.4°
Drops below altitude 10° 11:26:30 10° 154° (SSE) 2,965 7.4 -2.3°
Sets 11:32:52 0° 115° (ESE) 4,009 8.6 -1.5°
